Weather in Aksel

Russia / Republic of Mordovia     54°35′51″N   43°25′04″E
temp.,
°C
wind,
m/s
gust,
m/s
humid.,
%
clouds,
%
prec.,
mm/h
press.,
hPa
HPBL,
m
13 august, sat
sat1300:00+17nne2259100 0.0 102311
03:00+16nne1163100 0.0 102311
06:00+17nne116283 0.0 102316
09:00+23nne224315 0.0 1022441
12:00+27nne21337 0.0 10221432
15:00+28ne22271 0.0 10201911
18:00+26ne35382 0.0 1020188
21:00+19e356141 0.0 102178
14 august, sun
sun1400:00+18e3365100 0.0 102136
03:00+17e227194 0.0 102117
06:00+18e2370100 0.0 102169
09:00+23e3354100 0.0 1021522
12:00+26e3444100 0.0 10201518
15:00+27ese4443100 0.0 10201711
18:00+25e3550100 0.0 1019196
21:00+21e3761100 0.0 1020141
15 august, mon
mon1500:00+19e4867100 0.0 1020160
03:00+18ese3869100 0.0 1021176
06:00+18ese2664100 0.0 1022206
09:00+24ese4648100 0.0 1022642
12:00+27ese4537100 0.0 10221830
15:00+28e553597 0.0 10222162
18:00+26e56424 0.0 1022830
21:00+19ese36582 0.0 102383
16 august, tue
tue1600:00+17ese356421 0.0 102496
03:00+16e37625 0.0 1024120
06:00+16e39609 0.0 1025205
09:00+23e69395 0.0 1024905
12:00+27ese673046 0.0 10241721
15:00+27ese672820 0.0 10231917
18:00+25ese58375 0.0 1023847
21:00+19e410606 0.0 1023171
17 august, wed
wed1700:00+17e4106516 0.0 1023166
03:00+15e497382 0.0 1023165
06:00+16e396772 0.0 1023206
09:00+23ese5743100 0.0 1022553
12:00+27ese6734100 0.0 10211556
15:00+27ese6636100 0.0 10211642
18:00+24e5740100 0.0 1020786
21:00+18e366397 0.0 102090